Location: Newark
(52.3735°N, 16.9806°E)
Time: 10:46:32
(UTC+00:00)

SEEDS - Visible Passes

Search period start: 01 December 2021 00:00
Search period end: 11 December 2021 00:00
Orbit: 583 x 602 km, 97.6° (Epoch: 30 November)

Date Brightness Start Highest point End Pass type
(mag) Time Alt. Az. Time Alt. Az. Time Alt. Az.
01 Dec ? 03:52:27 10° N 03:53:56 21° N 03:53:56 21° N visible
01 Dec ? 05:30:09 10° NW 05:30:31 11° NW 05:30:31 11° NW visible
02 Dec ? 04:01:20 10° N 04:02:40 20° N 04:02:40 20° N visible
03 Dec ? 04:10:14 10° N 04:11:24 18° N 04:11:24 18° N visible
04 Dec ? 04:19:09 10° N 04:20:09 16° N 04:20:09 16° N visible
04 Dec ? 15:15:53 10° SSW 15:19:29 28° W 15:23:05 10° NW visible
05 Dec ? 04:28:05 10° N 04:28:54 15° N 04:28:54 15° N visible
05 Dec ? 15:25:03 10° SW 15:28:23 23° W 15:31:45 10° NW visible
06 Dec ? 04:37:02 10° N 04:37:39 13° N 04:37:39 13° N visible
06 Dec ? 15:34:16 10° SW 15:37:18 19° W 15:40:21 10° NW visible
07 Dec ? 04:46:01 10° N 04:46:26 12° NNW 04:46:26 12° NNW visible
07 Dec ? 15:43:37 10° SW 15:46:14 16° W 15:48:52 10° NW visible
08 Dec ? 04:55:01 10° NNW 04:55:12 11° NNW 04:55:12 11° NNW visible
08 Dec ? 15:53:06 10° WSW 15:55:10 13° W 15:57:15 10° WNW visible
09 Dec ? 16:02:57 10° WSW 16:04:07 11° W 16:05:17 10° WNW visible
